Карточка аэропорта UMKK

Внимание!
Информация на этой странице в стадии наполнения.
Если вы не увидели какой-то информации, или заметили неточность - пожалуйста сообщите нам!
Спасибо!
Команда RU-STAFF
Название аэропортаХраброво
Название аэропорта (англ.)Khrabrovo
Превышение43 ft. (13.1 m.)
Координаты54°53.4', 20°35.55'
Высота перехода4000ft
Эшелон переходаFL50 (QNH>=1013hPa); FL60 (QNH<1013hPa); FL50 (QNH<977hPa);
Коды ответчика6620-6637
Зона ОрВДКалининград РПИ (UMKK)
Данные METARUMKK 140100Z 25002MPS 9999 BKN045 08/08 Q1016 R24/95D NOSIG RMK QFE761/1015
Проноз погоды (TAF)UMKK 132111Z 1321/1421 VRB01MPS 1000 BR BKN020CB TEMPO 1321/1404 0400 FG BKN002 BKN016CB PROB40 TEMPO 1400/1403 3000 -TSRA BECMG 1404/1406 6000 NSW BECMG 1406/1408 35003G10MPS BECMG 1415/1417 03003MPS
NOTAMshow/hide NOTAM
AWOS   TABLE

Информация о ВПП

ВПП Длина ВПП (м.) Покрытие Курс ВПП Частота ILS
063350Асфальтобетон60110.3
243350Асфальтобетон240109.5

Диспетчерские позиции

Позывной Наименование органа УВД Частота
UMKK_APPКалининград-Подход126.0
UMKK_TWRКалининград-Вышка127.2



Спутниковое изображение